TimeMST,TemperatureF,Dew PointF,Humidity,Sea Level PressureIn,VisibilityMPH,Wind Direction,Wind SpeedMPH,Gust SpeedMPH,PrecipitationIn,Events,Conditions,WindDirDegrees,DateUTC
12:53 AM,41.0,19.4,42,29.80,10.0,WNW,9.2,-,N/A,,Clear,290,2012-01-06 07:53:00
1:53 AM,42.1,19.9,41,29.79,10.0,NW,12.7,-,N/A,,Clear,310,2012-01-06 08:53:00
2:53 AM,44.1,21.0,40,29.80,10.0,NW,16.1,-,N/A,,Clear,320,2012-01-06 09:53:00
3:53 AM,41.0,21.0,45,29.84,10.0,NW,12.7,-,N/A,,Clear,310,2012-01-06 10:53:00
4:53 AM,37.9,21.9,53,29.91,10.0,North,15.0,-,N/A,,Clear,350,2012-01-06 11:53:00
5:53 AM,34.0,21.9,61,29.95,10.0,North,11.5,-,N/A,,Clear,360,2012-01-06 12:53:00
6:53 AM,34.0,21.0,59,29.99,10.0,North,12.7,-,N/A,,Clear,350,2012-01-06 13:53:00
7:53 AM,37.9,21.9,53,30.01,10.0,North,11.5,-,N/A,,Clear,350,2012-01-06 14:53:00
8:53 AM,39.9,21.9,49,30.06,10.0,North,16.1,-,N/A,,Clear,360,2012-01-06 15:53:00
9:53 AM,43.0,16.0,34,30.09,10.0,North,20.7,-,N/A,,Clear,10,2012-01-06 16:53:00
10:53 AM,45.0,16.0,31,30.08,10.0,NNE,26.5,33.4,N/A,,Clear,30,2012-01-06 17:53:00
11:53 AM,46.0,15.1,29,30.05,10.0,NNE,19.6,29.9,N/A,,Clear,30,2012-01-06 18:53:00
12:53 PM,48.0,16.0,28,30.05,10.0,NNE,19.6,27.6,N/A,,Clear,20,2012-01-06 19:53:00
1:53 PM,46.9,17.1,30,30.07,10.0,NNE,16.1,-,N/A,,Clear,20,2012-01-06 20:53:00
2:53 PM,45.0,18.0,34,30.09,10.0,North,13.8,-,N/A,,Clear,360,2012-01-06 21:53:00
3:53 PM,42.8,17.6,36,30.08,10.0,NNE,4.6,-,N/A,,Clear,30,2012-01-06 22:53:00
4:53 PM,37.0,16.0,42,30.15,10.0,Calm,Calm,-,N/A,,Clear,0,2012-01-06 23:53:00
5:53 PM,33.1,17.1,52,30.17,10.0,Calm,Calm,-,N/A,,Clear,0,2012-01-07 00:53:00
6:53 PM,28.0,16.0,61,30.19,10.0,West,6.9,-,N/A,,Clear,270,2012-01-07 01:53:00
7:53 PM,30.0,17.1,59,30.19,10.0,WNW,6.9,-,N/A,,Clear,290,2012-01-07 02:53:00
8:53 PM,26.1,16.0,66,30.19,10.0,NW,5.8,-,N/A,,Clear,310,2012-01-07 03:53:00
9:53 PM,23.0,14.0,68,30.20,10.0,Calm,Calm,-,N/A,,Clear,0,2012-01-07 04:53:00
10:53 PM,21.0,14.0,74,30.20,10.0,West,3.5,-,N/A,,Clear,260,2012-01-07 05:53:00
11:53 PM,21.9,14.0,72,30.19,10.0,WSW,6.9,-,N/A,,Clear,250,2012-01-07 06:53:00